[[{"header":{"parameterUnit":"m.s-1","parameterCategory":1,"la1":30.2991,"la2":30.254,"lo1":-89.0895,"lo2":-89.0444,"dy":0.0017,"dx":0.0017,"nx":28,"ny":28,"refTime":"2025-01-16T03:00:00:Z","depth":0,"parameterNumber":2,"parameterNumberName":"U-component_of_WINDS"},"data":[0,0,0,0,0,0,0,0,0,0,0,0,0,0,0,0,0,0,0,0,0,0,0,0,0,0,0,0,0,0,0,0,0,0,0,0,0,0,0,0,0,0,0,0,0,0,0,0,0,0,0,0,0,0,0,0,0,0,-0.7546,-0.7547,0,-0.7728,-0.773,-0.7732,-0.775,-0.7748,-0.7746,-0.7744,-0.7938,-0.7945,-0.7952,0,0,0,0,0,0,0,0,0,0,0,0,0,-0.7218,-0.7224,-0.7545,-0.7548,-0.755,-0.7728,-0.773,-0.7733,-0.775,-0.7748,-0.7745,-0.7743,-0.7936,-0.7944,-0.7953,0,0,0,0,0,0,0,0,0,0,0,0,0,-0.7377,-0.7226,-0.7545,-0.758,-0.7585,-0.7727,-0.773,-0.7734,-0.7751,-0.7748,-0.7745,-0.7742,-0.7933,-0.7943,-0.7954,-0.8076,0,0,-0.7986,-0.799,0,0,0,0,0,0,0,0,-0.7368,-0.7389,-0.7572,-0.7578,-0.7583,-0.7713,-0.7686,-0.7849,-0.7751,-0.7688,-0.7744,-0.7741,-0.7866,-0.7882,-0.7923,-0.8086,-0.8094,-0.7987,-0.7993,-0.7998,-0.8,0,0,0,0,0,0,0,-0.7357,-0.7381,-0.7618,-0.7575,-0.7582,-0.7589,-0.7608,-0.7717,-0.7791,-0.7693,-0.7695,-0.7716,-0.7869,-0.7913,-0.7928,-0.8097,-0.7986,-0.7996,-0.8002,-0.8006,-0.8372,-0.8375,0,0,0,0,0,0,-0.7338,-0.7372,-0.7612,-0.7623,-0.7466,-0.7597,-0.7618,-0.7675,-0.779,-0.7805,-0.7718,-0.7716,-0.7896,-0.7915,-0.7934,-0.8088,-0.7997,-0.8007,-0.8013,-0.8368,-0.8373,-0.8376,0,0,0,0,0,0,-0.7331,-0.7359,-0.7605,-0.7498,-0.753,-0.7605,-0.7668,-0.768,-0.7724,-0.7809,-0.7823,-0.7749,-0.7895,-0.792,-0.8041,-0.8095,-0.8012,-0.8021,-0.8364,-0.837,-0.8374,-0.8394,0,0,0,0,0,0,-0.7322,-0.7357,-0.7403,-0.7499,-0.7535,-0.7706,-0.7672,-0.7685,-0.7741,-0.774,-0.7842,-0.7856,-0.7894,-0.8025,-0.8051,-0.8108,-0.803,-0.836,-0.8367,-0.8373,-0.8389,-0.8399,-0.8408,0,0,0,0,0,-0.731,-0.7402,-0.7405,-0.7434,-0.7594,-0.7709,-0.773,-0.7771,-0.7745,-0.7793,-0.7848,-0.7853,-0.8084,-0.8038,-0.8067,-0.8127,-0.8357,-0.8365,-0.8372,-0.8385,-0.8397,-0.8408,0,0,0,0,0,0,-0.7313,-0.7415,-0.742,-0.7545,-0.7618,-0.7712,-0.7774,-0.7782,-0.7866,-0.7862,-0.7911,-0.7934,-0.8054,-0.8102,-0.8049,-0.8253,-0.8218,-0.8232,-0.8218,-0.823,-0.8239,-0.8227,-0.8038,0,0,0,0,0,-0.7327,-0.741,-0.7496,-0.7599,-0.7635,-0.7698,-0.775,-0.7774,-0.7853,-0.7885,-0.7948,-0.8026,-0.8117,-0.8176,-0.8263,-0.8395,-0.842,-0.8451,-0.8461,-0.8468,-0.8481,-0.8557,-0.8573,-0.8402,-0.8402,-0.8401,0,0,-0.736,-0.7426,-0.7476,-0.7601,-0.766,-0.7748,-0.7724,-0.7817,-0.7883,-0.7899,-0.8018,-0.8067,-0.8158,-0.8285,-0.8345,-0.833,-0.8533,-0.8478,-0.8483,-0.8492,-0.8566,-0.8583,-0.8597,-0.8407,-0.8406,-0.8405,0,0,-0.7464,-0.752,-0.7613,-0.7673,-0.7762,-0.7803,-0.7825,-0.7918,-0.7951,-0.807,-0.8085,-0.8165,-0.8319,-0.8383,-0.8436,-0.8564,-0.8573,-0.8591,-0.8643,-0.8716,-0.873,-0.8742,-0.8791,-0.8807,-0.8603,-0.8603,-0.8603,0,-0.7493,-0.7623,-0.766,-0.7753,-0.7809,-0.7825,-0.7921,-0.7978,-0.8092,-0.8132,-0.8112,-0.8306,-0.8368,-0.8512,-0.8543,-0.8585,-0.8614,-0.8582,-0.8724,-0.8737,-0.8749,-0.8796,-0.8814,-0.8605,-0.8605,-0.8605,-0.8604,0,-0.7657,-0.7747,-0.7811,-0.7919,-0.7982,-0.8076,-0.813,-0.8189,-0.8208,-0.8252,-0.8374,-0.8449,-0.8553,-0.8588,-0.8608,-0.8736,-0.8724,-0.8713,-0.868,-0.8766,-0.8812,-0.883,-0.8608,-0.8607,-0.8607,-0.8606,0,0,-0.777,-0.7896,-0.792,-0.797,-0.8069,-0.8141,-0.8236,-0.8336,-0.8387,-0.8465,-0.8549,-0.8678,-0.8669,-0.873,-0.8757,-0.8821,-0.8921,-0.8803,-0.8806,-0.8825,-0.907,-0.9079,-0.9099,-0.8925,-0.8929,-0.8932,-0.9063,0,-0.7888,-0.8056,-0.8092,-0.8239,-0.8324,-0.834,-0.8423,-0.8495,-0.8538,-0.8619,-0.8667,-0.8759,-0.8739,-0.8776,-0.8839,-0.8895,-0.8971,-0.8886,-0.9007,-0.9011,-0.8987,-0.9123,-0.9133,-0.9254,-0.9081,-0.9084,-0.9086,0,-0.8048,-0.8128,-0.8282,-0.8372,-0.8409,-0.8483,-0.8578,-0.8653,-0.8736,-0.8763,-0.8829,-0.885,-0.8952,-0.8911,-0.9055,-0.8996,-0.9047,-0.9082,-0.9088,-0.9104,-0.9056,-0.9145,-0.9293,-0.9312,-0.9114,-0.9111,-0.9109,0,-0.8119,-0.8265,-0.8377,-0.8419,-0.8525,-0.8577,-0.8624,-0.8703,-0.8761,-0.8844,-0.8883,-0.8978,-0.9031,-0.9105,-0.9151,-0.9116,-0.9293,-0.9254,-0.9321,-0.932,-0.9361,-0.9358,-0.9522,-0.9388,-0.9388,-0.9387,-0.9387,0,-0.8249,-0.8344,-0.8411,-0.848,-0.8587,-0.8628,-0.8734,-0.8781,-0.8851,-0.8932,-0.8951,-0.9027,-0.9082,-0.9166,-0.9203,-0.9318,-0.9341,-0.9369,-0.9378,-0.9369,-0.9366,-0.9406,-0.94,-0.9392,-0.9391,-0.939,-0.9389,0,-0.8348,-0.8396,-0.852,-0.8609,-0.8634,-0.8709,-0.8787,-0.8856,-0.8899,-0.9001,-0.9027,-0.9096,-0.9196,-0.9248,-0.9374,-0.9399,-0.9529,-0.9532,-0.9501,-0.9506,-0.9571,-0.9566,-0.9769,-0.9799,-0.9642,-0.9644,-0.9645,0,-0.8429,-0.8502,-0.8599,-0.8653,-0.8701,-0.8788,-0.8846,-0.889,-0.8951,-0.905,-0.9108,-0.9208,-0.9291,-0.945,-0.9513,-0.961,-0.9618,-0.9682,-0.9633,-0.9622,-0.9623,-0.9619,-0.9628,-0.9692,-0.9694,-0.9695,-0.9696,0,-0.857,-0.859,-0.8672,-0.8764,-0.8832,-0.8907,-0.8981,-0.9025,-0.9081,-0.9148,-0.925,-0.9314,-0.9441,-0.9542,-0.9643,-0.9694,-0.9706,-0.971,-0.9732,-0.9725,-0.9705,-0.972,-0.9529,-0.9706,-0.9705,-0.9704,-0.9704,-0.9703,-0.8665,-0.8731,-0.881,-0.8902,-0.8961,-0.9029,-0.9099,-0.915,-0.9234,-0.934,-0.936,-0.9469,-0.9551,-0.9687,-0.9741,-0.9828,-0.9816,-0.9846,-0.9854,-0.9862,-0.9866,-0.9688,-0.9847,-0.9846,-0.9846,-0.9846,-0.9846,0,-0.8809,-0.886,-0.8943,-0.9045,-0.9118,-0.9118,-0.92,-0.9262,-0.9356,-0.943,-0.9511,-0.9629,-0.9726,-0.9796,-0.9896,-0.9953,-0.9961,-0.9978,-0.9976,-0.9988,-0.987,-0.9843,-0.997,-0.997,-0.997,-0.997,-0.997,-0.997,-0.8893,-0.9006,-0.9035,-0.9178,-0.9229,-0.9334,-0.9381,-0.9445,-0.9504,-0.9634,-0.9714,-0.9758,-0.9831,-0.9937,-1.0027,-1.0046,-1.0083,-1.0101,-1.012,-1.0009,-0.9996,-0.9984,-0.9959,-1.0108,-1.0108,-1.0231,-1.0232,-1.0233]},{"header":{"parameterUnit":"m.s-1","parameterCategory":1,"la1":30.2991,"la2":30.254,"lo1":-89.0895,"lo2":-89.0444,"dy":0.0017,"dx":0.0017,"nx":28,"ny":28,"refTime":"2025-01-16T03:00:00:Z","depth":0,"parameterNumber":3,"parameterNumberName":"V-component_of_WINDS"},"data":[0,0,0,0,0,0,0,0,0,0,0,0,0,0,0,0,0,0,0,0,0,0,0,0,0,0,0,0,0,0,0,0,0,0,0,0,0,0,0,0,0,0,0,0,0,0,0,0,0,0,0,0,0,0,0,0,0,0,-2.9024,-2.9025,0,-2.9034,-2.9034,-2.9034,-2.8998,-2.8997,-2.8996,-2.8995,-2.9003,-2.9005,-2.9006,0,0,0,0,0,0,0,0,0,0,0,0,0,-2.8973,-2.8974,-2.9024,-2.9025,-2.9025,-2.9034,-2.9034,-2.9034,-2.8998,-2.8997,-2.8996,-2.8994,-2.9003,-2.9004,-2.9006,0,0,0,0,0,0,0,0,0,0,0,0,0,-2.899,-2.8975,-2.9024,-2.9008,-2.9006,-2.9034,-2.9034,-2.9034,-2.8998,-2.8997,-2.8995,-2.8994,-2.9003,-2.9004,-2.9006,-2.905,0,0,-2.9012,-2.9013,0,0,0,0,0,0,0,0,-2.8989,-2.8992,-2.901,-2.9009,-2.9008,-2.9013,-2.9019,-2.9039,-2.8999,-2.9001,-2.8995,-2.8993,-2.9008,-2.9009,-2.9014,-2.905,-2.905,-2.9012,-2.9013,-2.9014,-2.9014,0,0,0,0,0,0,0,-2.8988,-2.8992,-2.9028,-2.901,-2.9009,-2.8999,-2.9,-2.9023,-2.9013,-2.9001,-2.8999,-2.9,-2.9007,-2.9013,-2.9014,-2.905,-2.9012,-2.9013,-2.9015,-2.9015,-2.9121,-2.9123,0,0,0,0,0,0,-2.899,-2.8991,-2.9028,-2.9028,-2.8994,-2.9002,-2.9002,-2.9013,-2.9013,-2.9012,-2.9002,-2.8998,-2.901,-2.9012,-2.9015,-2.9065,-2.9014,-2.9015,-2.9017,-2.9119,-2.9121,-2.9123,0,0,0,0,0,0,-2.8989,-2.8993,-2.9027,-2.9009,-2.9013,-2.9004,-2.9016,-2.9014,-2.902,-2.9014,-2.9012,-2.9009,-2.9009,-2.9012,-2.9041,-2.9065,-2.9016,-2.9018,-2.9117,-2.912,-2.9122,-2.9166,0,0,0,0,0,0,-2.8987,-2.8993,-2.901,-2.901,-2.9014,-2.9054,-2.9018,-2.9015,-2.9023,-2.9019,-2.902,-2.9019,-2.9008,-2.9038,-2.9043,-2.9066,-2.9019,-2.9115,-2.9118,-2.9121,-2.9163,-2.917,-2.9176,0,0,0,0,0,-2.8986,-2.9022,-2.9011,-2.9016,-2.9035,-2.9056,-2.9058,-2.9045,-2.9025,-2.9042,-2.9038,-2.9019,-2.9061,-2.9042,-2.9046,-2.9071,-2.9114,-2.9118,-2.9121,-2.916,-2.9169,-2.9176,0,0,0,0,0,0,-2.9025,-2.9022,-2.901,-2.9047,-2.9052,-2.905,-2.907,-2.9055,-2.9066,-2.9062,-2.9045,-2.9045,-2.9077,-2.9077,-2.9055,-2.9112,-2.9084,-2.9089,-2.9112,-2.912,-2.9127,-2.9126,-2.9021,0,0,0,0,0,-2.9038,-2.9056,-2.9052,-2.9085,-2.9089,-2.9079,-2.9088,-2.9077,-2.9082,-2.9084,-2.9081,-2.9086,-2.91,-2.911,-2.9123,-2.9162,-2.9162,-2.9181,-2.9188,-2.9194,-2.9198,-2.9218,-2.9227,-2.9136,-2.9136,-2.9136,0,0,-2.9066,-2.9066,-2.9078,-2.9093,-2.9096,-2.9114,-2.9081,-2.9102,-2.9115,-2.9087,-2.9114,-2.9113,-2.9116,-2.9151,-2.9166,-2.9151,-2.9223,-2.9199,-2.9203,-2.9205,-2.9223,-2.9232,-2.924,-2.9138,-2.9138,-2.9138,0,0,-2.9125,-2.9127,-2.9155,-2.9158,-2.9163,-2.9156,-2.9163,-2.9162,-2.916,-2.9188,-2.9166,-2.9181,-2.9206,-2.921,-2.9215,-2.9274,-2.9257,-2.9279,-2.9315,-2.9335,-2.9342,-2.9348,-2.9369,-2.9377,-2.9283,-2.9283,-2.9284,0,-2.9158,-2.9185,-2.9171,-2.9193,-2.92,-2.9175,-2.9203,-2.9206,-2.9215,-2.922,-2.9203,-2.9234,-2.9235,-2.9269,-2.9284,-2.9289,-2.9295,-2.9279,-2.9342,-2.9348,-2.9354,-2.9373,-2.9381,-2.9286,-2.9286,-2.9285,-2.9285,0,-2.9226,-2.9245,-2.9267,-2.9276,-2.9285,-2.931,-2.9298,-2.9309,-2.9298,-2.9293,-2.932,-2.932,-2.9332,-2.934,-2.9329,-2.9372,-2.9363,-2.9345,-2.9316,-2.9365,-2.9383,-2.9391,-2.929,-2.9289,-2.9288,-2.9287,0,0,-2.9311,-2.9311,-2.9319,-2.9322,-2.9325,-2.9339,-2.9362,-2.9374,-2.9384,-2.939,-2.9409,-2.943,-2.9413,-2.9419,-2.9408,-2.9425,-2.9472,-2.9404,-2.9404,-2.9417,-2.952,-2.9534,-2.9543,-2.946,-2.9462,-2.9463,-2.9519,0,-2.9369,-2.9409,-2.9396,-2.9437,-2.9454,-2.9429,-2.9449,-2.9453,-2.9449,-2.9462,-2.9457,-2.9472,-2.9448,-2.9451,-2.9468,-2.9463,-2.9492,-2.9458,-2.9477,-2.9478,-2.9477,-2.9552,-2.9567,-2.962,-2.9526,-2.9527,-2.9528,0,-2.9442,-2.9451,-2.9493,-2.9492,-2.9499,-2.9517,-2.9527,-2.954,-2.9543,-2.9538,-2.9545,-2.953,-2.9552,-2.9523,-2.9552,-2.953,-2.9537,-2.9535,-2.9537,-2.9538,-2.9506,-2.9555,-2.9637,-2.9645,-2.9539,-2.9538,-2.9538,0,-2.9499,-2.9522,-2.955,-2.9554,-2.9553,-2.9567,-2.9567,-2.9569,-2.9576,-2.9584,-2.9589,-2.96,-2.9606,-2.9614,-2.9602,-2.9582,-2.9633,-2.9603,-2.963,-2.963,-2.9642,-2.9641,-2.9726,-2.9646,-2.9646,-2.9646,-2.9646,0,-2.9565,-2.9592,-2.9576,-2.9593,-2.9622,-2.9607,-2.9636,-2.9633,-2.9634,-2.965,-2.963,-2.9645,-2.9628,-2.9642,-2.9633,-2.9658,-2.9661,-2.9658,-2.9655,-2.966,-2.966,-2.9664,-2.966,-2.9648,-2.9648,-2.9647,-2.9647,0,-2.9635,-2.9625,-2.9654,-2.9651,-2.9651,-2.9672,-2.9669,-2.9685,-2.9679,-2.9699,-2.9703,-2.9693,-2.9708,-2.9697,-2.9711,-2.9705,-2.9739,-2.9731,-2.9738,-2.9736,-2.9763,-2.9761,-2.9853,-2.9864,-2.9778,-2.9778,-2.9779,0,-2.9678,-2.9698,-2.9697,-2.9706,-2.9708,-2.9723,-2.973,-2.9715,-2.9724,-2.9729,-2.9744,-2.9757,-2.9766,-2.9791,-2.9785,-2.9796,-2.9788,-2.9819,-2.9789,-2.9793,-2.9788,-2.9787,-2.9789,-2.9825,-2.9827,-2.9827,-2.9828,0,-2.9755,-2.9749,-2.9761,-2.9771,-2.9781,-2.9788,-2.9794,-2.9802,-2.9787,-2.9798,-2.9813,-2.982,-2.9835,-2.9848,-2.9857,-2.9856,-2.984,-2.9837,-2.9844,-2.9849,-2.9852,-2.9851,-2.9755,-2.9835,-2.9835,-2.9834,-2.9834,-2.9833,-2.9812,-2.9828,-2.983,-2.9844,-2.9846,-2.9852,-2.9866,-2.9861,-2.9874,-2.9885,-2.9875,-2.9893,-2.9894,-2.9904,-2.9906,-2.9919,-2.9906,-2.9916,-2.9918,-2.9921,-2.9925,-2.985,-2.9921,-2.992,-2.992,-2.992,-2.992,0,-2.9888,-2.9887,-2.99,-2.9909,-2.9919,-2.9902,-2.9908,-2.9918,-2.9934,-2.9936,-2.9946,-2.9963,-2.9975,-2.997,-2.9981,-2.9993,-2.9985,-2.9996,-2.9995,-2.9995,-2.9936,-2.9929,-3.0002,-3.0002,-3.0002,-3.0002,-3.0002,-3.0002,-2.9928,-2.9955,-2.9949,-2.9976,-2.9975,-2.9993,-2.9997,-3.0002,-3.0004,-3.0024,-3.0034,-3.003,-3.003,-3.004,-3.0051,-3.0049,-3.0053,-3.0067,-3.0062,-3.0007,-2.9999,-2.9992,-2.9985,-3.0068,-3.0068,-3.012,-3.0121,-3.0121]}]]